Home > Weather > Patras > Past weeks

Flag for Greece Past Weather in Patras, Greece — Yesterday and Last 2 Weeks

Now
91 °F

Passing clouds.


Feels Like: 91 °F
Forecast: 68 / 96 °F
Wind: 6 mph from Northeast

Location: Araxos Airport

Current Time: Jul 27, 2016 at 2:47:59 PM

Latest Report: Jul 27, 2016 at 1:20 PM


Visibility: N/A

Pressure: 29.86 "Hg

Humidity: 34%

Dew Point: 59 °F

Location of PatrasLocation

Past Weather in Patras — Graph

°F

Patras Temperature Yesterday

Maximum temperature yesterday: 93 °F (at 12:20 PM)
Minimum temperature yesterday: 70 °F (at 6:20 AM)
Average temperature yesterday: 83 °F

High & Low Weather Summary for the Past Weeks

 TemperatureHumidityPressure
High97 °F (Jul 25, 3:50 PM)100% (Jul 15, 12:50 AM)29.98 "Hg (Jul 15, 12:50 AM)
Low64 °F (Jul 18, 5:50 AM)25% (Jul 25, 3:50 PM)29.74 "Hg (Jul 15, 3:50 AM)
Average82 °F58%29.87 "Hg
* Reported Jul 12 1:20 PM — Jul 27 1:20 PM, Patras, Weather by CustomWeather, © 2016

Note: Actual official high and low records may vary slightly from our data, if they occured in-between our weather recording intervals... More about our weather records

Advertising

Patras Weather History for the Previous 24 Hours

Scroll right to see more
 ConditionsComfort  
Time TempWeatherWind HumidityBarometerVisibility
1:20 PM
Wed, Jul 27
91 °FPassing clouds.6 mph34%29.86 "HgN/A
12:50 PM90 °FPassing clouds.8 mph38%29.86 "HgN/A
11:50 AM90 °FPassing clouds.12 mph38%29.86 "HgN/A
10:50 AM88 °FSunny.12 mph40%29.86 "Hg10 mi
10:20 AM86 °FSunny.10 mph46%29.86 "Hg10 mi
9:50 AM84 °FSunny.12 mph48%29.86 "Hg10 mi
9:20 AM82 °FSunny.9 mph51%29.86 "Hg10 mi
8:50 AM82 °FSunny.9 mph55%29.86 "Hg10 mi
8:20 AM79 °FSunny.No wind70%29.86 "Hg10 mi
7:50 AM75 °FSunny.No wind78%29.86 "Hg10 mi
7:20 AM72 °FClear.No wind83%29.86 "Hg10 mi
6:50 AM70 °FClear.No wind83%29.86 "Hg10 mi
6:20 AM70 °FClear.No wind83%29.86 "Hg10 mi
5:50 AM70 °FClear.No wind88%29.86 "Hg10 mi
4:50 AM72 °FClear.No wind83%29.86 "Hg10 mi
3:50 AM72 °FClear.No wind88%29.86 "Hg10 mi
2:50 AM72 °FClear.No wind88%29.86 "Hg10 mi
12:50 AM75 °FClear.No wind83%29.86 "Hg10 mi
11:50 PM
Tue, Jul 26
75 °FClear.No wind83%29.86 "Hg10 mi
10:50 PM79 °FClear.No wind79%29.86 "Hg10 mi
9:50 PM79 °FClear.No wind79%29.83 "Hg10 mi
8:50 PM82 °FSunny.No wind66%29.83 "Hg10 mi
8:20 PM84 °FPassing clouds.No wind55%29.83 "HgN/A
7:50 PM86 °FPassing clouds.No wind55%29.80 "HgN/A
7:20 PM88 °FPassing clouds.No wind52%29.80 "HgN/A
6:50 PM86 °FPassing clouds.5 mph62%29.80 "HgN/A
6:20 PM86 °FPassing clouds.5 mph59%29.80 "HgN/A
5:50 PM88 °FPassing clouds.5 mph52%29.80 "HgN/A
5:20 PM90 °FPassing clouds.8 mph41%29.80 "HgN/A
4:50 PM88 °FPassing clouds.8 mph49%29.80 "HgN/A
4:20 PM91 °FPassing clouds.7 mph38%29.80 "HgN/A
3:50 PM90 °FPassing clouds.6 mph41%29.80 "HgN/A
3:20 PM91 °FPassing clouds.8 mph36%29.83 "HgN/A
2:50 PM91 °FPassing clouds.5 mph38%29.83 "HgN/A
2:20 PM91 °FSunny.5 mph36%29.83 "Hg10 mi
Weather by CustomWeather, © 2016

See weather overviewHow to use our weather pages